[[{"header":{"parameterUnit":"m.s-1","parameterCategory":2,"la1":30.2991,"la2":30.254,"lo1":-89.0895,"lo2":-89.0444,"dy":0.0017,"dx":0.0017,"nx":28,"ny":28,"refTime":"2025-03-28T09:00:00:Z","depth":"0","parameterNumber":2,"parameterNumberName":"U-component_of_CURRENTS"},"data":[0,0,0,0,0,0,0,0,0,0,0,0,0,0,0,0,0,0,0,0,0,0,0,0,0,0,0,0,0,0,0,0,0,0,0,0,0,0,0,0,0,0,0,0,0,0,0,0,0,0,0,0,0,0,0,0,0,0,0.2465,0.2464,0,0.2401,0.24,0.2399,0.2336,0.2335,0.2334,0.2333,0.2285,0.2284,0.2284,0,0,0,0,0,0,0,0,0,0,0,0,0,0.2472,0.2472,0.2465,0.2464,0.2463,0.2401,0.24,0.2399,0.2336,0.2335,0.2334,0.2333,0.2285,0.2284,0.2284,0,0,0,0,0,0,0,0,0,0,0,0,0,0.2444,0.2472,0.2465,0.2425,0.242,0.2401,0.24,0.2399,0.2336,0.2335,0.2334,0.2332,0.2285,0.2284,0.2284,0.2302,0,0,0.2281,0.2281,0,0,0,0,0,0,0,0,0.2446,0.2444,0.2431,0.2427,0.2423,0.2376,0.2385,0.2367,0.2336,0.2367,0.2333,0.2332,0.2318,0.2314,0.2304,0.2299,0.2297,0.2281,0.228,0.228,0.228,0,0,0,0,0,0,0,0.2448,0.2446,0.2439,0.2431,0.2425,0.2389,0.2385,0.2381,0.235,0.2364,0.236,0.2354,0.2316,0.2305,0.2302,0.2297,0.2281,0.228,0.228,0.2279,0.2342,0.2344,0,0,0,0,0,0,0.2462,0.2448,0.2441,0.2437,0.2432,0.2391,0.2385,0.2391,0.2349,0.2342,0.2355,0.2352,0.2307,0.2303,0.23,0.2333,0.228,0.2279,0.2279,0.234,0.2342,0.2345,0,0,0,0,0,0,0.2463,0.2462,0.2443,0.244,0.2436,0.2392,0.2399,0.2391,0.2381,0.2342,0.2335,0.2355,0.2306,0.2301,0.2308,0.233,0.2279,0.2278,0.2337,0.234,0.2343,0.239,0,0,0,0,0,0,0.2463,0.2463,0.2476,0.2442,0.2436,0.2439,0.24,0.239,0.238,0.2374,0.234,0.2334,0.2304,0.2309,0.2307,0.2328,0.2277,0.2334,0.2339,0.2342,0.2386,0.2394,0.2402,0,0,0,0,0,0.2464,0.2479,0.2478,0.2477,0.2455,0.244,0.2434,0.2397,0.2381,0.2384,0.2365,0.2335,0.2334,0.231,0.2307,0.2328,0.2332,0.2337,0.2342,0.2382,0.2393,0.2402,0,0,0,0,0,0,0.247,0.2473,0.2471,0.2482,0.2469,0.2429,0.2425,0.2409,0.2395,0.239,0.2355,0.2349,0.2366,0.2351,0.2326,0.2364,0.2332,0.2336,0.2364,0.2373,0.2381,0.2369,0.2277,0,0,0,0,0,0.2487,0.2509,0.2493,0.2502,0.2499,0.2469,0.2459,0.244,0.242,0.2412,0.2391,0.2381,0.2386,0.238,0.2379,0.2395,0.2392,0.2413,0.2421,0.2427,0.242,0.2451,0.2461,0.2361,0.2361,0.236,0,0,0.2486,0.2494,0.2502,0.2507,0.2491,0.2482,0.246,0.2451,0.2446,0.2412,0.2407,0.2409,0.24,0.2416,0.2423,0.2401,0.2459,0.2434,0.2439,0.2427,0.2457,0.2467,0.2475,0.2364,0.2363,0.2363,0,0,0.2484,0.2509,0.2518,0.2518,0.2512,0.25,0.2504,0.248,0.2475,0.2479,0.2463,0.248,0.2473,0.2471,0.247,0.2528,0.2506,0.2537,0.2557,0.2589,0.2596,0.2603,0.2624,0.2633,0.2535,0.2535,0.2535,0,0.2481,0.2489,0.2514,0.2516,0.2509,0.2511,0.2498,0.2504,0.2487,0.249,0.2484,0.2502,0.2497,0.2519,0.254,0.2543,0.2554,0.2514,0.2597,0.2603,0.2609,0.2629,0.2638,0.2538,0.2537,0.2537,0.2537,0,0.2472,0.2482,0.2485,0.2497,0.2502,0.2494,0.2505,0.2516,0.2519,0.2519,0.2551,0.2559,0.256,0.2582,0.2572,0.2621,0.2615,0.2606,0.2564,0.2622,0.264,0.2648,0.2542,0.2541,0.254,0.2539,0,0,0.2437,0.2472,0.2468,0.2466,0.2489,0.2482,0.2507,0.2515,0.2518,0.2548,0.2554,0.2597,0.2607,0.261,0.262,0.2653,0.2716,0.2649,0.265,0.2656,0.2784,0.2754,0.2759,0.2723,0.2725,0.2726,0.2784,0,0.2408,0.241,0.2438,0.2426,0.2419,0.245,0.2466,0.2489,0.2512,0.253,0.2578,0.2595,0.2618,0.2624,0.2668,0.2699,0.2737,0.2701,0.2739,0.274,0.2694,0.2767,0.2598,0.2633,0.2791,0.2792,0.2793,0,0.2368,0.238,0.2368,0.2386,0.2384,0.2384,0.2405,0.2422,0.2475,0.2498,0.2545,0.2578,0.2641,0.2649,0.2744,0.272,0.2757,0.2787,0.279,0.2744,0.2724,0.2601,0.264,0.2499,0.2805,0.2804,0.2803,0,0.2306,0.2319,0.2309,0.2313,0.2343,0.2342,0.2356,0.2403,0.2424,0.2478,0.2505,0.2577,0.2615,0.2684,0.2768,0.2755,0.2867,0.285,0.2859,0.2857,0.2709,0.2692,0.2598,0.2916,0.2916,0.2916,0.2916,0,0.2251,0.2237,0.2275,0.2264,0.2249,0.2291,0.2286,0.2315,0.2371,0.2391,0.2482,0.2517,0.2629,0.2711,0.2772,0.2849,0.2875,0.2873,0.2876,0.2724,0.2708,0.2574,0.2504,0.2918,0.2918,0.2917,0.2917,0,0.2176,0.2201,0.2186,0.2212,0.2215,0.2203,0.2238,0.2245,0.2312,0.2343,0.2368,0.2487,0.2581,0.2698,0.2806,0.2848,0.2797,0.294,0.2756,0.2735,0.2587,0.2527,0.2343,0.2277,0.2942,0.2942,0.2941,0,0.2138,0.2126,0.2138,0.2125,0.2129,0.2129,0.2131,0.2196,0.2209,0.2316,0.2324,0.2445,0.2491,0.2662,0.2754,0.2856,0.2753,0.2775,0.2719,0.2563,0.2499,0.2362,0.231,0.2546,0.2543,0.254,0.2537,0,0.2069,0.2075,0.2069,0.204,0.2028,0.202,0.2027,0.2034,0.211,0.2149,0.2193,0.2242,0.241,0.2437,0.2608,0.2661,0.2546,0.2719,0.2595,0.2214,0.2018,0.196,0.2526,0.2512,0.2515,0.2516,0.2518,0.2519,0.2017,0.1989,0.1975,0.1935,0.1929,0.1889,0.1838,0.1864,0.1863,0.1873,0.2002,0.2009,0.2143,0.2339,0.2382,0.2342,0.2366,0.2257,0.221,0.2098,0.1974,0.2493,0.2463,0.2465,0.2467,0.2468,0.247,0,0.1927,0.1899,0.1868,0.1803,0.1749,0.1777,0.1747,0.1679,0.1621,0.1664,0.1676,0.1743,0.1776,0.1894,0.196,0.1853,0.1752,0.1763,0.1502,0.1497,0.1981,0.1904,0.1704,0.1704,0.1704,0.1704,0.1705,0.1705,0.1875,0.1801,0.1771,0.1634,0.1592,0.1466,0.1421,0.135,0.1331,0.128,0.1281,0.1359,0.1488,0.148,0.1397,0.1371,0.119,0.1054,0.1109,0.1403,0.1444,0.1483,0.1394,0.109,0.1089,0.0522,0.0517,0.0513]},{"header":{"parameterUnit":"m.s-1","parameterCategory":2,"la1":30.2991,"la2":30.254,"lo1":-89.0895,"lo2":-89.0444,"dy":0.0017,"dx":0.0017,"nx":28,"ny":28,"refTime":"2025-03-28T09:00:00:Z","depth":"0","parameterNumber":3,"parameterNumberName":"V-component_of_CURRENTS"},"data":[0,0,0,0,0,0,0,0,0,0,0,0,0,0,0,0,0,0,0,0,0,0,0,0,0,0,0,0,0,0,0,0,0,0,0,0,0,0,0,0,0,0,0,0,0,0,0,0,0,0,0,0,0,0,0,0,0,0,0.0298,0.0296,0,0.0114,0.0113,0.0111,0.0023,0.0022,0.0022,0.0022,-0.0093,-0.0096,-0.0099,0,0,0,0,0,0,0,0,0,0,0,0,0,0.0346,0.0348,0.0298,0.0296,0.0293,0.0115,0.0112,0.011,0.0023,0.0022,0.0022,0.0022,-0.0092,-0.0096,-0.0099,0,0,0,0,0,0,0,0,0,0,0,0,0,0.0263,0.0348,0.0299,0.0226,0.0218,0.0115,0.0112,0.011,0.0023,0.0022,0.0022,0.0022,-0.0091,-0.0095,-0.01,-0.0123,0,0,-0.0113,-0.0115,0,0,0,0,0,0,0,0,0.0268,0.0262,0.024,0.0231,0.0221,0.0089,0.0086,0.0034,0.0023,0.0099,0.0022,0.0022,-0.0027,-0.0037,-0.0069,-0.0128,-0.0133,-0.0114,-0.0116,-0.0118,-0.0119,0,0,0,0,0,0,0,0.0275,0.0268,0.0228,0.0237,0.0226,0.0125,0.0115,0.0075,0.0043,0.0093,0.0085,0.0061,-0.0031,-0.0064,-0.0072,-0.0135,-0.0113,-0.0117,-0.012,-0.0122,-0.0199,-0.0199,0,0,0,0,0,0,0.0305,0.0275,0.0234,0.0222,0.0242,0.0125,0.0114,0.0134,0.0041,0.0026,0.0061,0.0058,-0.0057,-0.0067,-0.0076,-0.0085,-0.0118,-0.0122,-0.0125,-0.02,-0.0199,-0.0199,0,0,0,0,0,0,0.0308,0.0305,0.0241,0.0239,0.0224,0.0126,0.0147,0.013,0.01,0.0016,0.0003,0.0049,-0.0057,-0.007,-0.0105,-0.0091,-0.0124,-0.0128,-0.0201,-0.02,-0.0199,-0.0118,0,0,0,0,0,0,0.0311,0.0308,0.0333,0.0243,0.0225,0.0193,0.0147,0.0127,0.0084,0.0077,0.0002,-0.001,-0.0058,-0.0098,-0.011,-0.0098,-0.0132,-0.0201,-0.02,-0.0199,-0.0121,-0.0114,-0.0108,0,0,0,0,0,0.0314,0.0348,0.0337,0.0331,0.0265,0.0193,0.0175,0.0103,0.0084,0.0075,0.0025,-0.0008,-0.0099,-0.0102,-0.0115,-0.0104,-0.0202,-0.0201,-0.0199,-0.0124,-0.0115,-0.0108,0,0,0,0,0,0,0.0356,0.0339,0.0326,0.0348,0.0282,0.0178,0.0159,0.0113,0.0063,0.0063,-0.0007,-0.0022,-0.0048,-0.0085,-0.0086,-0.0122,-0.0153,-0.0155,-0.0091,-0.0084,-0.0078,-0.0058,-0.0135,0,0,0,0,0,0.0387,0.0426,0.0358,0.0371,0.0349,0.026,0.0223,0.0174,0.0112,0.0088,0.0034,-0.0014,-0.0055,-0.0075,-0.0119,-0.0139,-0.0159,-0.0138,-0.0132,-0.0126,-0.0119,-0.0136,-0.013,-0.0194,-0.0194,-0.0194,0,0,0.0398,0.0397,0.0412,0.0384,0.0332,0.0299,0.0238,0.019,0.0163,0.0087,0.005,0.0004,-0.0055,-0.0082,-0.0095,-0.011,-0.0116,-0.0124,-0.0119,-0.0115,-0.0134,-0.0127,-0.0122,-0.0193,-0.0194,-0.0194,0,0,0.0426,0.0449,0.0479,0.0441,0.0382,0.0331,0.0326,0.0236,0.0205,0.0159,0.0104,0.0073,0.0001,-0.0035,-0.0063,-0.0044,-0.0082,-0.0057,-0.0009,-0.0025,-0.002,-0.0015,-0.0017,-0.0014,-0.0052,-0.0052,-0.0052,0,0.0443,0.0473,0.0462,0.046,0.043,0.0356,0.0339,0.0296,0.0204,0.0189,0.0164,0.0073,0.0026,-0.0002,0.0,-0.0028,-0.0041,-0.0033,-0.0015,-0.0011,-0.0008,-0.0012,-0.0009,-0.0048,-0.0048,-0.0049,-0.0049,0,0.0471,0.0489,0.0494,0.0493,0.0461,0.0434,0.0374,0.035,0.031,0.0259,0.0224,0.0157,0.0106,0.0089,0.0045,0.0044,0.0027,-0.0005,-0.0031,0.0003,-0.0003,-0.0001,-0.0042,-0.0043,-0.0045,-0.0046,0,0,0.0528,0.0524,0.0524,0.0523,0.0479,0.0451,0.0436,0.0391,0.0386,0.032,0.031,0.0241,0.0208,0.0175,0.0124,0.0108,0.012,0.0066,0.0063,0.0072,0.0096,0.0147,0.0153,0.009,0.009,0.009,0.0089,0,0.0547,0.0564,0.0554,0.0546,0.0541,0.0495,0.0486,0.0445,0.0408,0.0386,0.0333,0.0298,0.024,0.0221,0.0199,0.0134,0.0125,0.0124,0.0054,0.0053,0.01,0.0157,0.0276,0.029,0.009,0.009,0.009,0,0.0574,0.0586,0.0593,0.0587,0.0582,0.0569,0.0554,0.0531,0.0495,0.0471,0.0437,0.0386,0.0352,0.03,0.023,0.0231,0.0175,0.0129,0.0127,0.0147,0.0107,0.0219,0.03,0.0266,0.0092,0.0092,0.0092,0,0.0612,0.0612,0.0627,0.0618,0.06,0.0603,0.0588,0.0558,0.0559,0.0524,0.053,0.0468,0.0449,0.0372,0.028,0.0252,0.0214,0.016,0.0157,0.0159,0.0234,0.0243,0.0282,0.0121,0.0121,0.0121,0.0121,0,0.0639,0.0647,0.0648,0.065,0.0673,0.0643,0.0663,0.064,0.0632,0.0652,0.0578,0.0593,0.0466,0.0424,0.0324,0.0268,0.0249,0.0187,0.017,0.0268,0.0279,0.0229,0.0179,0.0121,0.0121,0.0121,0.0121,0,0.0666,0.0665,0.0683,0.0685,0.0689,0.0702,0.0715,0.0731,0.0716,0.0746,0.0743,0.0695,0.0652,0.0539,0.0425,0.0345,0.0277,0.0244,0.0378,0.0378,0.0344,0.0294,0.0303,0.0313,0.0247,0.0249,0.025,0,0.068,0.0695,0.0716,0.0737,0.0738,0.076,0.0779,0.0769,0.0792,0.0817,0.0841,0.0817,0.0822,0.0697,0.0571,0.0449,0.0357,0.0444,0.041,0.0388,0.0318,0.0276,0.0279,0.054,0.0544,0.0546,0.0549,0,0.0709,0.072,0.0737,0.0782,0.0808,0.0843,0.087,0.0906,0.0912,0.0956,0.101,0.1026,0.0956,0.0912,0.0753,0.0656,0.048,0.0497,0.0441,0.0539,0.053,0.0517,0.0489,0.0574,0.0571,0.0569,0.0568,0.0567,0.0735,0.0755,0.0785,0.0826,0.0866,0.0915,0.0945,0.0995,0.1059,0.1133,0.1153,0.1219,0.1186,0.1015,0.0881,0.074,0.0656,0.0678,0.0616,0.0572,0.0605,0.0645,0.0725,0.0723,0.0722,0.072,0.0719,0,0.0755,0.0781,0.0826,0.087,0.0919,0.093,0.0998,0.1033,0.1119,0.1242,0.132,0.1433,0.1349,0.1205,0.1036,0.0894,0.082,0.0792,0.0762,0.0753,0.0779,0.0817,0.0963,0.0963,0.0963,0.0963,0.0963,0.0963,0.0765,0.0803,0.0824,0.0905,0.094,0.0987,0.1025,0.1091,0.1185,0.1368,0.1506,0.1613,0.1603,0.1214,0.0993,0.0928,0.0821,0.0813,0.0694,0.0709,0.0693,0.0678,0.0704,0.0824,0.0824,0.075,0.0749,0.0748]}],[{"header":{"parameterUnit":"m.s-1","parameterCategory":2,"la1":30.2991,"la2":30.254,"lo1":-89.0895,"lo2":-89.0444,"dy":0.0017,"dx":0.0017,"nx":28,"ny":28,"refTime":"2025-03-28T09:00:00:Z","depth":"2","parameterNumber":2,"parameterNumberName":"U-component_of_CURRENTS"},"data":[0,0,0,0,0,0,0,0,0,0,0,0,0,0,0,0,0,0,0,0,0,0,0,0,0,0,0,0,0,0,0,0,0,0,0,0,0,0,0,0,0,0,0,0,0,0,0,0,0,0,0,0,0,0,0,0,0,0,0.2482,0.2481,0,0.2419,0.2418,0.2417,0.2354,0.2353,0.2352,0.2352,0.2304,0.2304,0.2303,0,0,0,0,0,0,0,0,0,0,0,0,0,0.2478,0.2479,0.2482,0.2481,0.248,0.2419,0.2418,0.2417,0.2354,0.2353,0.2352,0.2351,0.2304,0.2304,0.2303,0,0,0,0,0,0,0,0,0,0,0,0,0,0.2454,0.2479,0.2482,0.2442,0.2438,0.2419,0.2418,0.2417,0.2354,0.2353,0.2352,0.2351,0.2305,0.2304,0.2303,0.2321,0,0,0.23,0.23,0,0,0,0,0,0,0,0,0.2455,0.2454,0.2449,0.2445,0.244,0.2394,0.2399,0.2386,0.2354,0.2385,0.2352,0.235,0.2337,0.2333,0.2323,0.2319,0.2317,0.23,0.23,0.23,0.2299,0,0,0,0,0,0,0,0.2457,0.2456,0.2456,0.2448,0.2443,0.2404,0.2399,0.2396,0.2368,0.2382,0.2378,0.2372,0.2334,0.2324,0.2321,0.2316,0.23,0.23,0.2299,0.2299,0.2362,0.2364,0,0,0,0,0,0,0.2472,0.2458,0.2458,0.2454,0.2446,0.2405,0.24,0.2409,0.2368,0.236,0.2374,0.237,0.2326,0.2322,0.2319,0.2352,0.23,0.2299,0.2298,0.236,0.2363,0.2365,0,0,0,0,0,0,0.2472,0.2473,0.2461,0.2454,0.245,0.2407,0.2417,0.2408,0.2399,0.2361,0.2353,0.2373,0.2325,0.2321,0.2327,0.2349,0.2298,0.2298,0.2357,0.2361,0.2364,0.241,0,0,0,0,0,0,0.2473,0.2474,0.2489,0.2456,0.2451,0.2456,0.2418,0.2408,0.2398,0.2392,0.2359,0.2352,0.2323,0.2329,0.2326,0.2347,0.2297,0.2355,0.2359,0.2363,0.2406,0.2414,0.2422,0,0,0,0,0,0.2473,0.2491,0.2491,0.249,0.2473,0.2457,0.2451,0.2415,0.2399,0.2402,0.2384,0.2353,0.2353,0.2329,0.2326,0.2348,0.2353,0.2358,0.2362,0.2402,0.2413,0.2422,0,0,0,0,0,0,0.2478,0.2485,0.2484,0.2499,0.2486,0.2447,0.2443,0.2426,0.2413,0.2409,0.2374,0.2367,0.2385,0.237,0.2345,0.2383,0.2352,0.2356,0.2383,0.2393,0.2401,0.2389,0.2296,0,0,0,0,0,0.2496,0.2521,0.2507,0.2519,0.2516,0.2486,0.2477,0.2457,0.2438,0.243,0.2409,0.24,0.2405,0.24,0.2399,0.2415,0.2412,0.2433,0.2441,0.2447,0.244,0.2471,0.248,0.2381,0.2381,0.2381,0,0,0.2496,0.2506,0.2516,0.2524,0.2508,0.25,0.2477,0.2468,0.2464,0.2431,0.2425,0.2428,0.2419,0.2435,0.2442,0.2421,0.2479,0.2453,0.2459,0.2447,0.2477,0.2486,0.2495,0.2384,0.2384,0.2383,0,0,0.2495,0.2524,0.2535,0.2535,0.2529,0.2517,0.2521,0.2498,0.2493,0.2497,0.2481,0.2498,0.2492,0.2491,0.249,0.2548,0.2526,0.2557,0.2576,0.2608,0.2616,0.2622,0.2643,0.2652,0.2554,0.2555,0.2555,0,0.2493,0.2505,0.2531,0.2533,0.2526,0.2528,0.2516,0.2522,0.2505,0.2508,0.2503,0.252,0.2516,0.2538,0.2559,0.2562,0.2574,0.2534,0.2616,0.2623,0.2628,0.2648,0.2657,0.2557,0.2557,0.2557,0.2556,0,0.2486,0.2498,0.2501,0.2514,0.252,0.2512,0.2523,0.2534,0.2537,0.2537,0.2569,0.2577,0.2579,0.26,0.2592,0.264,0.2634,0.2626,0.2584,0.2641,0.2659,0.2667,0.2561,0.256,0.256,0.2559,0,0,0.2455,0.249,0.2486,0.2484,0.2507,0.25,0.2525,0.2533,0.2537,0.2566,0.2572,0.2615,0.2626,0.2628,0.2639,0.2672,0.2735,0.2668,0.2669,0.2675,0.2803,0.2772,0.2777,0.2742,0.2743,0.2744,0.2802,0,0.2425,0.2428,0.2456,0.2444,0.2437,0.2468,0.2484,0.2508,0.2531,0.2548,0.2597,0.2613,0.2637,0.2643,0.2686,0.2718,0.2756,0.2719,0.2758,0.2758,0.2712,0.2785,0.2487,0.2511,0.2809,0.281,0.2811,0,0.2386,0.2398,0.2386,0.2404,0.2403,0.2402,0.2423,0.244,0.2494,0.2516,0.2563,0.2596,0.266,0.2668,0.2762,0.2738,0.2775,0.2805,0.2808,0.2762,0.2742,0.2502,0.2513,0.2823,0.2822,0.2822,0.2821,0,0.2324,0.2337,0.2327,0.2331,0.2361,0.2361,0.2375,0.2421,0.2443,0.2497,0.2524,0.2596,0.2634,0.2702,0.2786,0.2773,0.2885,0.2867,0.2876,0.2874,0.2618,0.2591,0.2934,0.2934,0.2934,0.2933,0.2933,0,0.2269,0.2255,0.2294,0.2282,0.2267,0.231,0.2304,0.2334,0.239,0.241,0.2501,0.2536,0.2648,0.2729,0.279,0.2866,0.2893,0.289,0.2893,0.2629,0.2604,0.2865,0.2856,0.2935,0.2935,0.2935,0.2934,0,0.2194,0.2219,0.2205,0.2231,0.2233,0.2221,0.2257,0.2264,0.2331,0.2363,0.2387,0.2506,0.26,0.2716,0.2824,0.2865,0.2939,0.2957,0.2644,0.2609,0.2901,0.2894,0.2959,0.2958,0.2958,0.2957,0.2957,0,0.2156,0.2144,0.2156,0.2144,0.2148,0.2148,0.215,0.2215,0.2229,0.2335,0.2344,0.2465,0.2507,0.2677,0.2726,0.2817,0.2932,0.2657,0.2583,0.2911,0.2907,0.29,0.2895,0.226,0.2254,0.2249,0.2245,0,0.2087,0.2093,0.2088,0.2059,0.2047,0.204,0.2047,0.2054,0.2131,0.2169,0.2213,0.2259,0.2386,0.2346,0.2502,0.2524,0.2617,0.2564,0.2972,0.2319,0.2262,0.2255,0.227,0.2202,0.2206,0.2209,0.2211,0.2213,0.2035,0.2007,0.1994,0.1954,0.1949,0.1909,0.1859,0.1902,0.1903,0.1938,0.203,0.2045,0.2107,0.2177,0.2158,0.2179,0.2373,0.2319,0.2329,0.2345,0.2273,0.2221,0.2138,0.2142,0.2145,0.2148,0.2151,0,0.1944,0.1918,0.1887,0.1823,0.1779,0.1797,0.1768,0.1738,0.1704,0.1778,0.1793,0.1691,0.166,0.1763,0.1686,0.1748,0.1672,0.1724,0.1584,0.1629,0.1668,0.1557,0.1235,0.1233,0.123,0.1228,0,0,0.1892,0.1819,0.1789,0.1666,0.1624,0.1539,0.1495,0.1483,0.1517,0.1506,0.1496,0.16,0.169,0.1445,0.1416,0.1311,0.1459,0.1256,0.1981,0.1857,0.1893,0.1997,0.1876,0,0,0,0,0]},{"header":{"parameterUnit":"m.s-1","parameterCategory":2,"la1":30.2991,"la2":30.254,"lo1":-89.0895,"lo2":-89.0444,"dy":0.0017,"dx":0.0017,"nx":28,"ny":28,"refTime":"2025-03-28T09:00:00:Z","depth":"2","parameterNumber":3,"parameterNumberName":"V-component_of_CURRENTS"},"data":[0,0,0,0,0,0,0,0,0,0,0,0,0,0,0,0,0,0,0,0,0,0,0,0,0,0,0,0,0,0,0,0,0,0,0,0,0,0,0,0,0,0,0,0,0,0,0,0,0,0,0,0,0,0,0,0,0,0,0.0263,0.0261,0,0.008,0.0078,0.0076,-0.0011,-0.0011,-0.0011,-0.0011,-0.0125,-0.0128,-0.0131,0,0,0,0,0,0,0,0,0,0,0,0,0,0.0293,0.0294,0.0263,0.026,0.0258,0.008,0.0078,0.0076,-0.0011,-0.0011,-0.0011,-0.0011,-0.0124,-0.0127,-0.0131,0,0,0,0,0,0,0,0,0,0,0,0,0,0.0215,0.0295,0.0263,0.0192,0.0183,0.0081,0.0078,0.0075,-0.0011,-0.0011,-0.0011,-0.0011,-0.0123,-0.0127,-0.0131,-0.0155,0,0,-0.0145,-0.0147,0,0,0,0,0,0,0,0,0.022,0.0214,0.0205,0.0196,0.0187,0.0055,0.0046,0.0001,-0.0011,0.0065,-0.0011,-0.0011,-0.006,-0.0069,-0.0101,-0.016,-0.0165,-0.0145,-0.0148,-0.015,-0.0151,0,0,0,0,0,0,0,0.0226,0.022,0.0193,0.0202,0.0191,0.0084,0.0076,0.0036,0.0009,0.0059,0.0051,0.0027,-0.0064,-0.0097,-0.0104,-0.0167,-0.0145,-0.0149,-0.0152,-0.0153,-0.023,-0.023,0,0,0,0,0,0,0.0257,0.0227,0.0199,0.0187,0.02,0.0085,0.0075,0.01,0.0008,-0.0008,0.0028,0.0024,-0.0089,-0.0099,-0.0108,-0.0117,-0.015,-0.0154,-0.0156,-0.0231,-0.023,-0.023,0,0,0,0,0,0,0.0259,0.0258,0.0206,0.0197,0.0183,0.0086,0.0113,0.0096,0.0066,-0.0017,-0.003,0.0016,-0.009,-0.0102,-0.0137,-0.0123,-0.0156,-0.016,-0.0232,-0.0231,-0.023,-0.0149,0,0,0,0,0,0,0.0262,0.0262,0.029,0.0202,0.0185,0.0158,0.0112,0.0092,0.005,0.0044,-0.0031,-0.0043,-0.0091,-0.013,-0.0141,-0.0129,-0.0163,-0.0232,-0.0231,-0.023,-0.0153,-0.0146,-0.014,0,0,0,0,0,0.0264,0.0303,0.0294,0.0289,0.023,0.0158,0.014,0.0069,0.005,0.0042,-0.0008,-0.004,-0.0131,-0.0134,-0.0147,-0.0136,-0.0233,-0.0232,-0.023,-0.0156,-0.0147,-0.014,0,0,0,0,0,0,0.0305,0.0295,0.0284,0.0312,0.0247,0.0143,0.0125,0.0079,0.0029,0.003,-0.004,-0.0055,-0.008,-0.0117,-0.0118,-0.0154,-0.0185,-0.0186,-0.0123,-0.0116,-0.011,-0.009,-0.0167,0,0,0,0,0,0.0337,0.0383,0.0317,0.0335,0.0314,0.0225,0.0188,0.014,0.0078,0.0055,0.0001,-0.0047,-0.0087,-0.0107,-0.0151,-0.0171,-0.0191,-0.017,-0.0164,-0.0158,-0.0151,-0.0168,-0.0162,-0.0225,-0.0225,-0.0225,0,0,0.035,0.0352,0.0372,0.0349,0.0297,0.0263,0.0204,0.0156,0.0129,0.0053,0.0017,-0.0028,-0.0088,-0.0114,-0.0127,-0.0141,-0.0147,-0.0156,-0.0151,-0.0147,-0.0166,-0.0159,-0.0154,-0.0225,-0.0225,-0.0225,0,0,0.038,0.0409,0.0443,0.0405,0.0347,0.0296,0.0291,0.0202,0.0171,0.0125,0.0071,0.004,-0.0031,-0.0068,-0.0095,-0.0076,-0.0114,-0.009,-0.0042,-0.0058,-0.0053,-0.0048,-0.0051,-0.0047,-0.0084,-0.0084,-0.0084,0,0.0399,0.0433,0.0426,0.0425,0.0394,0.0321,0.0304,0.0261,0.017,0.0154,0.013,0.004,-0.0007,-0.0035,-0.0033,-0.006,-0.0074,-0.0066,-0.0048,-0.0045,-0.0042,-0.0045,-0.0042,-0.008,-0.0081,-0.0081,-0.0082,0,0.0429,0.045,0.0456,0.0458,0.0426,0.0398,0.0338,0.0315,0.0275,0.0224,0.0189,0.0123,0.0072,0.0055,0.0012,0.0011,-0.0007,-0.0038,-0.0064,-0.003,-0.0036,-0.0035,-0.0074,-0.0076,-0.0077,-0.0078,0,0,0.0492,0.0488,0.0488,0.0487,0.0443,0.0415,0.0399,0.0355,0.035,0.0284,0.0274,0.0206,0.0173,0.014,0.009,0.0074,0.0086,0.0032,0.0029,0.0038,0.0061,0.0112,0.0118,0.0055,0.0055,0.0056,0.0054,0,0.0511,0.0528,0.0518,0.051,0.0505,0.0459,0.045,0.0408,0.0371,0.0349,0.0296,0.0262,0.0204,0.0186,0.0164,0.01,0.0091,0.009,0.002,0.0018,0.0065,0.0121,-0.0012,-0.0019,0.0055,0.0055,0.0055,0,0.0539,0.0551,0.0557,0.055,0.0545,0.0532,0.0517,0.0494,0.0458,0.0433,0.04,0.0349,0.0315,0.0264,0.0194,0.0195,0.014,0.0094,0.0092,0.0112,0.0072,-0.0046,-0.002,0.0057,0.0057,0.0057,0.0057,0,0.0576,0.0577,0.0591,0.0582,0.0563,0.0566,0.0551,0.052,0.0521,0.0486,0.0493,0.043,0.0412,0.0335,0.0244,0.0216,0.0177,0.0124,0.0121,0.0123,-0.0016,-0.0025,0.0085,0.0085,0.0085,0.0085,0.0085,0,0.0604,0.0611,0.0612,0.0614,0.0637,0.0607,0.0626,0.0603,0.0595,0.0614,0.0541,0.0555,0.0428,0.0386,0.0287,0.0231,0.0213,0.0151,0.0134,0.0011,0.0005,0.0041,0.0036,0.0085,0.0085,0.0085,0.0085,0,0.0631,0.0629,0.0647,0.0648,0.0652,0.0666,0.0678,0.0693,0.0678,0.0707,0.0705,0.0656,0.0613,0.05,0.0387,0.0307,0.0228,0.0206,0.0089,0.0061,0.017,0.0169,0.0206,0.0208,0.021,0.0211,0.0213,0,0.0645,0.066,0.0681,0.0701,0.0702,0.0723,0.0742,0.0732,0.0754,0.0778,0.0802,0.0777,0.0761,0.0637,0.0422,0.0274,0.0307,0.0143,0.0075,0.0207,0.0186,0.0182,0.0179,-0.0091,-0.0093,-0.0094,-0.0095,0,0.0674,0.0685,0.0702,0.0746,0.0772,0.0807,0.0833,0.0868,0.0873,0.0893,0.0946,0.0941,0.079,0.0569,0.0376,0.0269,0.0156,0.0123,0.0266,-0.007,-0.0065,-0.0088,-0.0084,-0.0105,-0.0104,-0.0103,-0.0103,-0.0102,0.07,0.072,0.0749,0.0791,0.083,0.0878,0.0907,0.0864,0.0891,0.0816,0.0935,0.0816,0.0699,0.0319,0.0219,0.0074,0.0097,0.0033,0.0031,0.0032,0.003,0.0041,0.0019,0.0021,0.0023,0.0024,0.0025,0,0.0685,0.0746,0.0791,0.0835,0.0836,0.0893,0.0961,0.0867,0.0802,0.0717,0.0658,0.0491,0.0298,0.0215,-0.008,-0.0145,-0.0216,-0.0097,-0.0214,-0.0205,-0.0197,-0.0214,-0.0288,-0.0288,-0.0288,-0.0288,0,0,0.0686,0.0704,0.0724,0.0776,0.0846,0.0798,0.0832,0.0681,0.0562,0.0378,0.028,0.0185,0.0208,-0.0033,-0.0128,-0.023,-0.0197,-0.0239,-0.0004,-0.013,-0.012,-0.0154,-0.0173,0,0,0,0,0]}],[{"header":{"parameterUnit":"m.s-1","parameterCategory":2,"la1":30.2991,"la2":30.254,"lo1":-89.0895,"lo2":-89.0444,"dy":0.0017,"dx":0.0017,"nx":28,"ny":28,"refTime":"2025-03-28T09:00:00:Z","depth":"4","parameterNumber":2,"parameterNumberName":"U-component_of_CURRENTS"},"data":[0,0,0,0,0,0,0,0,0,0,0,0,0,0,0,0,0,0,0,0,0,0,0,0,0,0,0,0,0,0,0,0,0,0,0,0,0,0,0,0,0,0,0,0,0,0,0,0,0,0,0,0,0,0,0,0,0,0,0.1439,0.144,0,0.1535,0.1536,0.1537,0.16,0.1601,0.1601,0.1602,0.166,0.1661,0.1662,0,0,0,0,0,0,0,0,0,0,0,0,0,0.1352,0.1352,0.1438,0.144,0.1441,0.1535,0.1536,0.1537,0.16,0.1601,0.1601,0.1602,0.166,0.1661,0.1662,0,0,0,0,0,0,0,0,0,0,0,0,0,0.141,0.1353,0.1438,0.1486,0.1492,0.1534,0.1536,0.1537,0.16,0.1601,0.1602,0.1603,0.166,0.1661,0.1663,0.165,0,0,0.1667,0.1667,0,0,0,0,0,0,0,0,0.1406,0.1413,0.1478,0.1483,0.1489,0.1559,0.1527,0.1574,0.1599,0.1556,0.1602,0.1603,0.1624,0.1629,0.1641,0.1653,0.1656,0.1667,0.1668,0.1668,0.1669,0,0,0,0,0,0,0,0.1402,0.1409,0.1474,0.1479,0.1486,0.1518,0.1527,0.1536,0.158,0.1559,0.1565,0.158,0.1627,0.1639,0.1643,0.1657,0.1667,0.1668,0.1669,0.1669,0.1757,0.1759,0,0,0,0,0,0,0.1393,0.1405,0.1471,0.1477,0.1453,0.1519,0.1528,0.1533,0.1581,0.159,0.1579,0.1583,0.1636,0.1641,0.1645,0.1713,0.1668,0.167,0.167,0.1756,0.1758,0.1759,0,0,0,0,0,0,0.139,0.1397,0.1467,0.1446,0.1458,0.1519,0.1524,0.1535,0.1577,0.1597,0.1605,0.1615,0.1637,0.1643,0.1682,0.1712,0.167,0.1671,0.1754,0.1756,0.1759,0.1797,0,0,0,0,0,0,0.1387,0.1395,0.1407,0.1445,0.1459,0.1508,0.1524,0.1536,0.1584,0.1591,0.1629,0.1634,0.1639,0.168,0.1684,0.1713,0.1673,0.1752,0.1755,0.1758,0.1794,0.18,0.1806,0,0,0,0,0,0.1384,0.1393,0.1407,0.1416,0.1468,0.1509,0.1519,0.1564,0.1585,0.1605,0.1637,0.1635,0.1701,0.1683,0.1686,0.1717,0.1751,0.1754,0.1758,0.1791,0.1799,0.1806,0,0,0,0,0,0,0.1372,0.1401,0.1418,0.1438,0.1479,0.1521,0.155,0.1578,0.1619,0.1633,0.1649,0.1656,0.1702,0.1704,0.1684,0.1752,0.1727,0.1732,0.1752,0.1759,0.1765,0.1758,0.1674,0,0,0,0,0,0.1371,0.1381,0.1421,0.1443,0.1462,0.151,0.1538,0.1569,0.1606,0.1628,0.1656,0.1687,0.1713,0.1733,0.1752,0.1786,0.1786,0.181,0.1816,0.1821,0.182,0.1852,0.1861,0.177,0.177,0.177,0,0,0.1377,0.1393,0.1404,0.1441,0.1476,0.1509,0.1529,0.1578,0.1614,0.1624,0.1685,0.1707,0.1726,0.1768,0.179,0.1779,0.1849,0.1826,0.183,0.1825,0.1857,0.1865,0.1873,0.1773,0.1772,0.1772,0,0,0.1385,0.1406,0.1418,0.1449,0.1501,0.1528,0.1547,0.1603,0.1638,0.169,0.171,0.1751,0.1794,0.1816,0.183,0.1879,0.1877,0.1894,0.1922,0.1954,0.1961,0.1968,0.1981,0.1988,0.19,0.19,0.19,0,0.1395,0.1411,0.1433,0.1457,0.149,0.1537,0.157,0.1608,0.1674,0.1702,0.1716,0.1796,0.1814,0.1861,0.1886,0.1892,0.1905,0.1891,0.1961,0.1967,0.1973,0.1985,0.1992,0.1903,0.1902,0.1902,0.1902,0,0.1407,0.1435,0.145,0.1489,0.1524,0.1564,0.1613,0.1658,0.1705,0.1742,0.181,0.1841,0.1887,0.1907,0.1914,0.1971,0.1965,0.1961,0.1939,0.1984,0.1994,0.2001,0.1906,0.1905,0.1904,0.1904,0,0,0.1391,0.1447,0.1456,0.1483,0.1546,0.1575,0.1633,0.1693,0.1735,0.1799,0.1851,0.191,0.1935,0.1953,0.1973,0.2007,0.2063,0.201,0.201,0.2015,0.213,0.1996,0.1991,0.2079,0.208,0.2081,0.2119,0,0.1401,0.1443,0.1471,0.1529,0.1557,0.1613,0.166,0.1721,0.1776,0.1835,0.1883,0.1938,0.1951,0.1982,0.202,0.2054,0.2085,0.2053,0.2091,0.2092,0.1961,0.1995,0.2086,0.2125,0.2126,0.2127,0.2128,0,0.1399,0.1429,0.1479,0.1546,0.1565,0.1609,0.1688,0.1738,0.182,0.1863,0.1925,0.1962,0.2029,0.2028,0.2109,0.2093,0.2116,0.2136,0.2137,0.2001,0.197,0.2071,0.2141,0.214,0.2139,0.2138,0.2137,0,0.1363,0.1434,0.1473,0.1499,0.1579,0.1619,0.1671,0.1752,0.1797,0.1886,0.1925,0.2,0.2049,0.2096,0.2145,0.2138,0.2219,0.2208,0.2105,0.2096,0.2188,0.2181,0.2256,0.2256,0.2256,0.2256,0.2256,0,0.1344,0.1382,0.1465,0.1487,0.1542,0.1608,0.1673,0.1732,0.1813,0.1855,0.1941,0.1973,0.2074,0.2129,0.2159,0.2149,0.2232,0.2107,0.2097,0.2204,0.2198,0.2193,0.2185,0.2258,0.2257,0.2257,0.2257,0,0.1294,0.135,0.1401,0.1492,0.1525,0.1567,0.1668,0.1706,0.1796,0.1851,0.1881,0.1979,0.2035,0.2113,0.2188,0.215,0.2162,0.2139,0.2246,0.2243,0.2013,0.2007,0.2013,0.2008,0.2005,0.2001,0.1999,0,0.1269,0.1291,0.1391,0.1423,0.147,0.1543,0.1586,0.1686,0.172,0.1829,0.1839,0.193,0.1981,0.1972,0.2067,0.2102,0.2089,0.2082,0.2041,0.1998,0.1989,0.1989,0.1988,0.1993,0.1992,0.1991,0.199,0,0.122,0.1268,0.1308,0.1371,0.1426,0.1475,0.1545,0.1555,0.1654,0.1747,0.1743,0.1768,0.1825,0.1874,0.1921,0.1945,0.2076,0.2042,0.2049,0.2011,0.1974,0.1969,0.1972,0.1977,0.1979,0.198,0.1981,0,0.1187,0.1201,0.126,0.1305,0.137,0.1388,0.1433,0.146,0.15,0.1608,0.16,0.1694,0.1785,0.1793,0.1835,0.1848,0.1824,0.1775,0.1796,0.1811,0.1732,0.1654,0.1546,0,0,0,0,0,0.1147,0.1153,0.1189,0.1231,0.129,0.1327,0.1395,0.1439,0.1525,0.1476,0.1529,0.1562,0.1596,0.1653,0.163,0.1777,0.1855,0.1745,0.1814,0.1905,0.192,0.1847,0,0,0,0,0,0,0.112,0.1153,0.1159,0.1159,0.1176,0.1226,0.1265,0.1323,0.1299,0.1387,0.1411,0.148,0.1544,0.1594,0.1604,0.1625,0.164,0.181,0.1807,0.1897,0.191,0.1922,0.1853,0,0,0,0,0]},{"header":{"parameterUnit":"m.s-1","parameterCategory":2,"la1":30.2991,"la2":30.254,"lo1":-89.0895,"lo2":-89.0444,"dy":0.0017,"dx":0.0017,"nx":28,"ny":28,"refTime":"2025-03-28T09:00:00:Z","depth":"4","parameterNumber":3,"parameterNumberName":"V-component_of_CURRENTS"},"data":[0,0,0,0,0,0,0,0,0,0,0,0,0,0,0,0,0,0,0,0,0,0,0,0,0,0,0,0,0,0,0,0,0,0,0,0,0,0,0,0,0,0,0,0,0,0,0,0,0,0,0,0,0,0,0,0,0,0,-0.0349,-0.0349,0,-0.0352,-0.0352,-0.0352,-0.0359,-0.0359,-0.0359,-0.0359,-0.0395,-0.0395,-0.0396,0,0,0,0,0,0,0,0,0,0,0,0,0,-0.0339,-0.0339,-0.0349,-0.0349,-0.0349,-0.0352,-0.0352,-0.0352,-0.0359,-0.0359,-0.0359,-0.0359,-0.0394,-0.0395,-0.0396,0,0,0,0,0,0,0,0,0,0,0,0,0,-0.0344,-0.0339,-0.0349,-0.0352,-0.0352,-0.0352,-0.0352,-0.0352,-0.0359,-0.0359,-0.0359,-0.0359,-0.0394,-0.0395,-0.0397,-0.0405,0,0,-0.0401,-0.0402,0,0,0,0,0,0,0,0,-0.0344,-0.0345,-0.0351,-0.0351,-0.0352,-0.0354,-0.0361,-0.0371,-0.0359,-0.0358,-0.0359,-0.0359,-0.0383,-0.0385,-0.0387,-0.0407,-0.0408,-0.0401,-0.0402,-0.0403,-0.0403,0,0,0,0,0,0,0,-0.0343,-0.0344,-0.0352,-0.0351,-0.0351,-0.0349,-0.035,-0.0363,-0.0372,-0.0358,-0.0358,-0.0356,-0.0384,-0.0386,-0.0388,-0.0409,-0.0401,-0.0402,-0.0403,-0.0404,-0.0427,-0.0427,0,0,0,0,0,0,-0.0341,-0.0344,-0.0352,-0.0352,-0.0346,-0.0349,-0.035,-0.0354,-0.0371,-0.0373,-0.0356,-0.0356,-0.0384,-0.0387,-0.039,-0.0391,-0.0403,-0.0404,-0.0405,-0.0427,-0.0427,-0.0426,0,0,0,0,0,0,-0.0341,-0.0342,-0.0352,-0.0346,-0.0347,-0.0349,-0.0354,-0.0354,-0.036,-0.0369,-0.0372,-0.0361,-0.0384,-0.0388,-0.0398,-0.0393,-0.0404,-0.0406,-0.0427,-0.0427,-0.0427,-0.04,0,0,0,0,0,0,-0.034,-0.0342,-0.0352,-0.0346,-0.0347,-0.0351,-0.0353,-0.0354,-0.0357,-0.0358,-0.0374,-0.0377,-0.0384,-0.0396,-0.04,-0.0395,-0.0407,-0.0428,-0.0427,-0.0427,-0.0401,-0.0399,-0.0397,0,0,0,0,0,-0.034,-0.0349,-0.0353,-0.0354,-0.0359,-0.0351,-0.0352,-0.0354,-0.0358,-0.0359,-0.0367,-0.0377,-0.0396,-0.0397,-0.0401,-0.0397,-0.0428,-0.0427,-0.0427,-0.0402,-0.0399,-0.0397,0,0,0,0,0,0,-0.0345,-0.0351,-0.0355,-0.0364,-0.0359,-0.0352,-0.0356,-0.0356,-0.0363,-0.0367,-0.0377,-0.038,-0.0387,-0.0397,-0.0398,-0.0402,-0.0412,-0.0413,-0.0392,-0.039,-0.0388,-0.0375,-0.0408,0,0,0,0,0,-0.0352,-0.0366,-0.036,-0.0368,-0.0366,-0.0363,-0.0363,-0.0361,-0.0362,-0.0366,-0.0373,-0.0382,-0.0388,-0.0393,-0.0402,-0.0407,-0.0414,-0.0406,-0.0404,-0.0402,-0.0394,-0.0401,-0.0399,-0.0425,-0.0425,-0.0425,0,0,-0.0353,-0.0361,-0.0367,-0.0371,-0.0369,-0.0354,-0.0363,-0.0361,-0.0348,-0.0369,-0.0364,-0.0378,-0.0388,-0.039,-0.0393,-0.0397,-0.0399,-0.0401,-0.0399,-0.0392,-0.04,-0.0398,-0.0395,-0.0424,-0.0424,-0.0425,0,0,-0.0349,-0.037,-0.0371,-0.0367,-0.0364,-0.0359,-0.0357,-0.0351,-0.0351,-0.0348,-0.0357,-0.0365,-0.0377,-0.0377,-0.038,-0.0372,-0.0388,-0.0379,-0.0356,-0.0363,-0.0361,-0.0359,-0.0367,-0.0366,-0.0376,-0.0376,-0.0376,0,-0.0346,-0.0348,-0.0368,-0.0358,-0.0347,-0.0357,-0.0335,-0.0337,-0.0334,-0.033,-0.0343,-0.0351,-0.0366,-0.0357,-0.0355,-0.0366,-0.0375,-0.0365,-0.036,-0.0358,-0.0357,-0.0365,-0.0364,-0.0375,-0.0375,-0.0375,-0.0375,0,-0.0335,-0.0331,-0.0329,-0.0321,-0.0316,-0.0302,-0.0297,-0.0295,-0.03,-0.0299,-0.0299,-0.0318,-0.0319,-0.0329,-0.0341,-0.0335,-0.0346,-0.0358,-0.0366,-0.0353,-0.0362,-0.0362,-0.0373,-0.0374,-0.0374,-0.0374,0,0,-0.0321,-0.032,-0.0315,-0.03,-0.0293,-0.028,-0.0266,-0.0248,-0.0234,-0.025,-0.023,-0.0252,-0.0269,-0.0273,-0.0292,-0.0301,-0.0306,-0.0325,-0.0326,-0.033,-0.0323,-0.0323,-0.0323,-0.032,-0.0319,-0.0319,-0.0335,0,-0.0295,-0.0271,-0.0276,-0.0238,-0.0217,-0.0219,-0.02,-0.0193,-0.0196,-0.0185,-0.0211,-0.0207,-0.0246,-0.0247,-0.0264,-0.029,-0.0303,-0.03,-0.0337,-0.0338,-0.0337,-0.0322,-0.0318,-0.0335,-0.0335,-0.0335,-0.0335,0,-0.0269,-0.0256,-0.022,-0.0187,-0.0178,-0.0159,-0.013,-0.0114,-0.0111,-0.0115,-0.0125,-0.0147,-0.0159,-0.0197,-0.0238,-0.0236,-0.0277,-0.0305,-0.0306,-0.0313,-0.0336,-0.035,-0.0334,-0.0334,-0.0334,-0.0334,-0.0334,0,-0.0244,-0.0209,-0.0181,-0.017,-0.0141,-0.0123,-0.0105,-0.0094,-0.0075,-0.0072,-0.0061,-0.0088,-0.0093,-0.0146,-0.0211,-0.0224,-0.0258,-0.0282,-0.0321,-0.0322,-0.033,-0.0332,-0.0314,-0.0314,-0.0314,-0.0314,-0.0314,0,-0.021,-0.0184,-0.0167,-0.0151,-0.0106,-0.0096,-0.0053,-0.0043,-0.0023,0.0001,-0.0026,-0.0017,-0.0081,-0.0113,-0.0185,-0.0245,-0.0239,-0.0309,-0.0322,-0.032,-0.032,-0.033,-0.0332,-0.0315,-0.0314,-0.0314,-0.0314,0,-0.019,-0.0179,-0.0143,-0.011,-0.0095,-0.0066,-0.002,0.0006,0.0023,0.0055,0.0059,0.0045,0.0005,-0.0063,-0.0139,-0.02,-0.0265,-0.0294,-0.0276,-0.0289,-0.0333,-0.0333,-0.0331,-0.0332,-0.0332,-0.0332,-0.0332,0,-0.018,-0.0161,-0.0121,-0.0098,-0.0083,-0.0039,-0.0008,0.0023,0.005,0.0086,0.0102,0.0087,0.0061,-0.0031,-0.0115,-0.0229,-0.0259,-0.0292,-0.0323,-0.032,-0.0333,-0.0333,-0.0333,-0.0332,-0.0332,-0.0332,-0.0332,0,-0.0161,-0.0153,-0.013,-0.0087,-0.0051,-0.0005,0.0039,0.0065,0.0101,0.0126,0.014,0.0097,0.006,-0.0025,-0.0104,-0.0197,-0.0267,-0.0294,-0.0295,-0.0324,-0.032,-0.0333,-0.0333,-0.0332,-0.0332,-0.0332,-0.0332,0,-0.0155,-0.0143,-0.0121,-0.008,-0.0037,0.0004,0.0037,0.0074,0.0108,0.0149,0.0152,0.0112,0.0098,-0.0008,-0.0088,-0.0165,-0.02,-0.0243,-0.0248,-0.0249,-0.0227,-0.021,-0.019,0,0,0,0,0,-0.015,-0.0145,-0.0114,-0.0075,-0.0035,-0.0018,0.0053,0.0084,0.0127,0.0141,0.0149,0.0111,0.0018,-0.0016,-0.0093,-0.0112,-0.0227,-0.0209,-0.0284,-0.0332,-0.0332,-0.0321,0,0,0,0,0,0,-0.015,-0.0133,-0.0124,-0.0086,-0.007,-0.0026,0.0009,0.0046,0.0063,0.0101,0.006,0.0064,-0.0022,0.0049,-0.0109,-0.0128,-0.0192,-0.0241,-0.0243,-0.0332,-0.0332,-0.0332,-0.0321,0,0,0,0,0]}]]